Theta_e
348 349 350 350 351 352 354 353 353 352 351 350 349 349 349 348 349 347 346 350 352 351 354 351 352 354 354 352 352 354 357 357 356 357 358 358 362 363 367 363 367 368 368 366 367 366 364 361 362 361 360 359 357 356 355 354 356 354 352 357 352 353 351 351 350 348 344 343 347 345 349 348 346 351 348 352 351 354 355 354 356 355 357 357 360
348 349 349 350 350 351 353 351 351 348 349 348 347 347 347 347 346 347 347 349 351 352 354 352 356 355 353 353 352 353 355 355 355 358 356 357 364 367 367 367 367 368 368 369 368 364 362 358 359 358 359 360 359 360 360 361 362 360 355 351 353 349 348 349 348 348 343 341 339 341 345 350 349 345 344 349 348 349 351 351 352 352 351 353 355
347 346 348 348 349 350 350 350 349 349 346 346 347 346 346 345 347 350 347 349 352 354 355 355 357 359 356 354 353 352 355 360 355 356 358 357 360 364 366 367 367 365 367 368 365 363 361 359 359 356 359 359 360 362 362 361 362 360 361 355 350 351 350 351 351 350 343 345 347 344 341 342 346 349 348 350 346 347 348 349 349 346 348 351 348
344 345 345 346 348 349 349 349 348 347 345 344 343 344 345 347 349 351 350 352 355 357 359 358 360 364 365 362 361 360 358 360 361 360 360 359 358 360 365 367 366 362 362 361 360 360 362 363 359 356 359 362 361 362 363 359 360 357 355 356 357 350 348 348 352 353 351 346 342 341 343 341 337 345 346 346 350 349 348 348 345 346 349 350 351
345 344 345 345 346 348 348 348 347 344 342 343 342 342 342 344 349 353 353 356 358 361 362 364 365 368 369 368 368 364 361 360 356 353 356 358 357 358 356 362 363 362 360 360 360 360 363 365 363 360 358 360 359 357 357 355 353 355 356 356 357 352 345 344 351 352 351 354 346 343 341 336 338 340 342 344 351 348 348 349 347 349 352 345 347
347 344 345 345 346 347 348 347 345 345 344 344 343 342 344 344 349 356 356 358 358 362 366 366 366 366 363 360 355 353 353 352 350 349 349 350 351 353 355 357 359 362 361 359 358 358 360 361 365 363 359 356 356 356 356 353 354 353 356 355 353 356 355 352 349 349 347 353 353 350 349 340 340 343 342 338 348 348 349 352 352 350 348 345 348
347 346 346 344 345 346 345 346 345 344 345 346 346 346 347 348 352 356 358 359 358 363 368 367 367 366 363 356 354 353 350 351 353 352 350 350 352 353 354 357 358 357 357 358 357 361 363 364 366 365 361 359 360 357 355 354 352 352 354 352 352 353 356 353 348 349 350 352 351 352 353 352 348 346 340 343 339 344 350 350 350 350 351 349 346
346 345 346 345 345 344 343 345 345 344 346 346 346 347 349 351 352 356 359 360 359 362 367 368 366 365 364 359 355 354 351 351 355 356 353 355 355 356 355 353 356 357 356 361 361 361 364 362 365 366 362 360 356 353 351 351 350 350 355 356 358 359 357 354 353 351 348 347 350 350 351 351 350 346 346 342 340 338 340 347 353 352 351 351 350
346 344 345 345 344 343 343 344 345 345 345 345 346 348 349 351 355 357 359 363 360 363 366 368 367 365 364 359 357 357 356 353 357 358 355 356 353 352 354 353 354 356 360 365 364 360 362 363 366 366 365 363 361 354 354 353 353 354 358 358 360 361 360 358 356 355 354 350 350 352 351 351 351 351 350 351 347 343 340 343 345 349 351 350 353
346 346 346 345 344 343 344 344 345 344 345 346 346 348 349 351 354 358 360 362 361 364 367 369 368 367 364 362 359 358 358 358 357 356 359 359 355 356 355 355 351 351 356 366 369 367 365 366 360 357 358 357 358 358 357 358 359 361 360 359 362 363 361 358 356 357 357 357 356 354 353 352 351 347 351 349 346 351 345 343 347 344 343 349 353
345 346 346 345 345 344 344 343 343 344 345 345 346 347 348 349 354 357 361 360 361 364 366 367 367 366 364 364 362 360 360 358 357 357 356 359 356 351 349 350 351 352 353 356 356 358 361 364 359 356 355 357 355 356 356 353 353 352 351 354 358 362 362 365 364 364 361 362 356 355 352 351 349 349 350 348 347 347 349 349 347 351 348 346 350
345 345 345 345 344 344 343 343 343 344 344 345 345 346 348 350 353 357 360 362 361 362 364 363 363 364 364 365 365 364 363 357 357 356 354 356 352 349 351 350 352 349 351 350 353 355 358 356 361 359 357 356 356 357 356 355 355 356 355 357 358 360 364 365 365 364 363 358 357 355 352 353 353 353 353 350 348 349 350 351 349 350 350 347 349
345 346 345 343 342 343 342 343 343 344 344 345 344 345 348 350 352 356 359 362 362 361 363 364 363 362 362 362 364 365 363 362 360 357 356 352 350 348 350 349 348 350 350 349 350 352 355 354 356 357 358 361 368 369 369 370 368 365 364 364 363 366 364 365 362 361 359 359 356 354 355 352 354 357 356 353 352 355 356 350 353 354 346 346 348
345 345 345 343 342 342 343 343 343 344 345 345 345 346 347 348 352 355 359 362 364 361 361 363 363 363 363 362 361 363 363 360 362 355 351 352 351 349 345 343 345 347 347 350 352 352 353 355 359 362 368 371 372 372 371 370 370 367 365 364 364 365 366 366 364 362 361 360 357 356 353 353 352 355 356 357 350 347 348 351 349 348 348 344 346
345 345 345 344 342 343 342 343 344 345 345 345 345 347 348 349 351 356 359 362 364 361 361 362 361 362 361 360 360 360 357 356 355 355 355 352 349 346 349 346 344 347 348 352 358 358 358 361 363 366 368 372 373 371 366 368 370 369 369 368 367 365 365 365 362 362 357 358 359 359 356 356 358 358 357 356 356 354 351 346 347 343 341 342 342
344 345 345 345 343 344 343 344 344 345 347 346 345 346 346 348 352 354 359 361 361 363 361 361 361 359 362 363 360 361 361 357 357 361 362 356 351 349 350 355 352 349 354 357 356 359 362 366 366 367 371 368 368 368 367 366 366 366 365 366 364 362 360 361 359 359 358 358 359 360 358 358 358 356 354 352 354 354 353 352 351 345 339 335 340
342 343 344 344 343 344 344 345 344 344 345 346 347 346 347 348 350 354 358 360 358 363 358 359 360 358 359 360 359 359 358 355 352 355 359 357 358 355 351 351 354 356 350 354 355 363 371 368 367 364 364 363 364 362 360 362 363 362 359 360 359 358 359 358 360 359 358 357 357 357 355 353 354 355 353 352 352 355 355 356 352 345 346 338 335
342 344 345 344 343 344 344 344 344 343 344 345 348 347 348 348 351 352 354 357 357 360 356 355 356 355 356 356 359 357 354 353 354 355 353 354 357 357 356 352 352 352 354 355 363 364 368 365 363 360 359 358 357 356 356 356 357 355 354 354 351 350 350 351 352 351 350 349 350 352 352 347 349 353 352 353 352 353 351 350 347 346 346 340 338
341 342 342 342 343 341 342 342 343 344 345 344 344 346 346 348 350 352 353 355 355 358 357 354 353 352 352 353 353 355 354 355 358 361 360 353 351 351 352 354 355 357 359 370 368 361 361 358 359 356 355 354 353 352 352 352 352 350 349 348 347 346 344 344 345 344 345 344 343 343 345 342 344 349 349 350 349 350 351 349 346 347 349 347 342
341 341 340 340 340 341 341 342 342 342 342 342 342 343 343 346 351 352 353 356 360 359 359 357 354 351 349 351 353 357 361 362 362 363 357 353 351 350 352 352 354 358 368 363 361 360 358 356 352 351 351 352 350 348 348 347 348 347 344 341 342 344 342 341 341 342 343 341 342 341 341 341 344 343 341 342 343 346 347 345 345 346 348 349 347
338 338 338 339 340 341 341 342 342 342 342 343 341 342 342 344 349 352 351 351 357 359 361 361 360 357 354 350 350 354 358 363 364 363 359 353 352 352 352 354 363 365 365 360 358 357 356 354 352 351 349 349 349 346 345 345 345 342 342 342 342 342 341 340 341 340 340 341 341 339 339 339 341 340 339 340 338 339 342 345 347 347 345 346 344
338 337 338 339 340 340 340 341 342 341 340 341 341 341 341 343 347 351 354 353 357 359 361 363 363 359 355 355 354 356 362 365 364 359 356 352 350 353 356 363 364 363 361 357 356 354 353 351 350 349 348 345 345 346 342 344 341 341 340 340 339 338 339 338 337 337 337 337 336 336 336 337 338 337 338 337 338 337 338 339 341 341 341 340 342
337 338 338 339 340 341 340 341 342 341 341 341 342 341 341 343 346 351 354 356 358 362 365 365 362 361 359 357 360 361 364 364 360 356 353 352 353 356 365 364 361 358 358 356 353 352 351 351 349 347 345 343 343 342 342 342 340 339 338 337 337 336 336 335 333 334 334 334 334 334 333 334 335 334 334 335 336 337 336 335 335 338 339 339 341
338 338 339 341 342 342 342 341 341 341 343 343 344 345 341 342 346 350 355 358 360 363 364 364 361 358 357 360 362 364 364 361 358 355 357 353 357 366 366 362 358 356 352 352 352 350 350 350 346 344 343 344 343 342 341 341 339 338 337 335 335 334 333 333 332 332 331 332 332 332 331 332 332 332 332 332 334 334 336 337 335 338 338 338 339
338 339 340 343 342 341 343 342 344 344 343 346 346 348 347 348 347 351 357 361 362 364 364 364 360 358 358 359 363 363 361 359 354 358 358 360 367 365 364 361 357 353 352 351 350 349 347 345 340 340 342 342 342 342 341 340 338 338 337 335 336 335 334 334 334 333 332 331 331 330 330 331 331 329 331 331 332 334 334 335 336 336 336 337 338
341 340 341 342 344 344 345 345 345 343 345 350 352 351 349 347 353 355 359 361 363 362 363 362 360 358 359 358 362 362 361 361 360 365 364 368 367 364 360 358 357 354 353 350 347 344 342 340 340 340 341 343 343 342 340 339 337 338 336 336 335 335 333 333 331 331 331 331 330 331 331 331 331 330 330 331 333 333 334 335 334 334 335 336 337
339 341 341 347 348 344 345 347 346 346 346 347 349 351 350 351 354 357 362 364 365 363 364 363 360 359 361 360 361 363 363 364 369 369 370 368 365 362 359 356 355 353 350 347 345 342 341 340 342 343 342 342 341 340 340 339 338 338 337 335 334 333 333 332 332 331 331 332 331 330 331 331 331 331 330 331 332 332 332 333 334 333 336 338 337
341 341 341 343 344 344 347 350 350 349 350 351 349 352 352 354 356 360 363 362 361 363 364 363 361 360 362 359 363 364 366 372 373 371 367 364 361 359 356 355 353 350 347 346 343 341 341 342 342 343 342 342 341 339 339 339 339 337 336 334 333 333 332 332 331 331 332 332 331 332 332 331 331 333 333 333 333 333 333 333 335 338 338 338 338
340 341 343 346 347 348 350 350 353 353 352 354 354 356 357 357 359 363 362 362 363 364 364 363 361 361 362 363 364 367 375 374 370 367 363 360 357 356 353 352 350 347 343 342 342 340 341 341 342 341 341 339 337 336 335 335 336 336 336 334 334 332 332 331 331 331 332 332 331 331 332 332 333 334 334 333 333 333 333 333 336 337 336 336 334
340 343 346 350 349 350 352 352 354 353 355 356 356 356 357 356 357 361 361 362 364 363 362 362 361 362 364 367 370 374 372 369 366 363 360 357 354 352 351 349 346 344 344 344 343 343 342 341 340 340 339 336 335 334 332 330 331 335 336 333 334 333 333 332 332 331 332 333 331 332 333 332 334 334 335 334 333 333 334 335 334 336 337 336 336
341 345 348 349 349 350 352 353 354 354 355 355 356 358 357 357 358 361 362 364 363 362 362 363 361 364 368 373 372 371 369 365 363 360 357 354 352 350 349 346 344 343 342 343 342 341 341 341 340 339 336 334 333 331 328 326 328 330 336 334 332 334 334 333 333 332 333 332 331 332 333 333 334 334 335 334 333 332 333 334 334 335 337 337 336
341 343 346 347 347 348 350 351 354 354 354 355 357 358 358 357 360 362 361 364 361 362 362 363 363 368 373 370 368 368 365 362 359 357 354 353 351 349 347 345 342 341 342 342 341 340 340 340 339 338 336 333 332 327 326 326 328 328 332 336 333 333 333 334 334 334 333 331 331 331 332 333 334 333 334 336 335 333 333 334 336 336 337 338 336
341 343 345 345 347 350 353 353 356 356 355 356 358 360 359 360 361 363 364 363 360 362 363 362 368 372 370 368 368 365 362 359 357 355 353 351 350 347 345 343 341 341 341 341 340 339 339 339 338 337 335 333 331 327 326 326 327 328 330 336 334 334 334 333 334 334 334 333 333 332 331 333 332 331 333 335 335 336 336 337 337 338 338 338 336
342 343 345 346 348 350 353 356 357 357 357 360 361 361 362 364 364 365 363 362 362 362 363 367 371 369 368 367 365 362 359 357 355 353 351 350 348 346 344 343 341 341 340 338 338 339 338 338 338 336 335 333 333 327 324 325 327 327 330 335 335 334 334 334 335 335 335 334 332 332 332 331 332 333 334 335 335 336 336 336 337 337 337 338 337
345 344 344 348 351 352 354 355 358 357 358 359 360 363 364 364 364 364 363 362 364 363 366 370 368 368 367 365 363 360 357 355 353 352 350 349 347 345 342 341 341 340 339 338 338 337 338 338 338 336 333 331 330 322 323 324 325 325 329 336 336 335 334 335 335 336 336 334 333 333 332 332 332 334 333 332 334 336 336 335 336 336 337 338 338
347 346 348 349 352 353 352 355 359 358 356 357 359 361 364 363 365 363 362 364 364 366 368 368 367 366 365 364 361 359 356 354 352 351 349 347 345 343 341 341 340 340 340 339 338 338 337 338 338 337 333 331 328 321 321 322 322 324 328 335 335 336 335 335 335 335 335 335 334 334 333 333 335 335 332 329 332 336 336 334 335 335 335 336 337
350 349 349 351 355 355 352 357 357 357 357 356 359 361 360 361 361 361 364 363 366 367 367 367 365 365 363 362 360 357 354 352 351 350 348 346 343 342 341 342 341 340 338 337 338 337 338 338 338 337 335 333 331 324 319 320 320 321 333 335 337 336 336 334 334 335 334 334 334 336 334 334 333 332 330 326 328 336 333 332 332 332 333 333 334
347 352 353 354 355 355 352 352 352 354 357 359 361 362 361 362 360 362 364 365 365 366 367 366 364 364 362 361 358 356 353 351 351 349 347 345 343 343 342 342 339 338 337 338 339 337 338 338 338 337 336 334 333 327 317 318 318 320 333 336 337 336 335 335 334 336 335 333 334 332 335 332 331 331 326 325 327 337 335 335 333 332 330 329 330
345 346 348 349 353 352 350 352 353 351 354 359 361 361 359 361 361 363 364 364 363 365 366 364 364 363 361 359 357 355 353 351 350 348 346 343 342 341 341 341 340 340 338 337 336 336 336 338 339 337 333 335 335 331 318 316 317 319 333 338 336 334 334 334 334 333 335 333 334 333 331 331 332 330 322 323 325 334 334 333 332 330 329 329 330
343 343 347 348 350 350 348 350 350 353 354 359 359 357 359 361 360 364 362 362 363 366 367 366 362 360 358 356 355 354 353 351 349 347 346 343 343 341 341 341 340 338 335 334 334 334 334 335 337 337 336 336 335 334 327 315 316 319 323 344 337 335 332 333 333 331 332 333 333 334 333 326 321 321 320 319 322 325 333 332 332 330 329 329 333
348 344 351 346 348 346 345 346 350 355 354 356 354 354 359 362 363 362 360 362 366 367 364 361 359 356 354 354 354 353 351 351 348 345 344 342 342 341 341 340 337 336 335 334 334 335 335 334 335 334 335 337 338 335 329 315 315 316 319 332 337 336 335 334 333 332 332 331 332 332 332 327 319 319 317 316 318 322 330 333 332 331 332 333 334
360 355 350 348 345 347 347 346 351 355 356 356 355 357 361 364 363 360 361 367 366 363 361 359 356 354 352 352 353 352 351 347 346 344 342 340 341 342 340 337 336 336 335 334 334 334 333 332 333 334 336 336 336 336 335 321 315 314 315 322 335 337 339 335 333 332 331 331 333 332 333 326 318 318 316 314 315 321 327 333 333 321 324 329 334
357 355 356 353 351 348 347 350 356 356 355 355 356 361 365 362 359 361 363 364 361 359 357 355 353 350 349 350 351 348 346 344 343 341 339 338 338 338 338 338 336 334 333 333 333 333 333 332 333 334 336 337 336 334 329 331 318 314 314 316 318 332 328 336 332 331 332 332 333 333 332 325 317 314 313 314 316 320 330 328 318 322 324 328 334
359 359 356 357 357 359 362 362 359 360 361 360 363 364 362 359 360 365 360 359 357 356 354 351 349 349 348 348 347 345 343 341 339 338 337 336 336 336 335 334 334 332 331 331 331 331 331 330 330 331 334 335 336 333 327 326 327 316 314 314 316 317 322 335 335 332 333 333 332 333 330 315 312 311 315 317 318 325 327 315 319 324 329 332 332
356 357 357 356 357 358 359 360 361 363 364 365 366 363 361 360 362 359 358 356 355 353 350 348 347 347 346 345 344 342 340 337 335 334 333 334 334 334 332 333 333 331 330 330 330 330 329 329 329 329 330 332 334 333 331 327 324 325 318 317 320 322 321 323 334 334 334 331 323 313 313 315 317 317 318 323 325 327 321 321 321 327 331 330 331
354 355 356 356 356 355 354 354 356 359 359 359 360 363 361 357 354 353 353 351 351 350 348 347 346 346 344 343 341 339 338 336 334 334 333 332 331 331 331 331 331 329 329 329 329 328 328 329 328 329 329 330 332 332 332 332 329 328 327 321 321 328 329 330 330 330 327 322 318 317 317 319 325 327 330 332 331 332 330 332 330 331 330 330 331
353 353 355 354 355 354 352 351 350 352 354 356 358 359 357 353 352 351 351 349 348 346 345 345 345 343 342 340 338 335 334 334 335 333 330 329 329 330 330 329 329 328 329 328 329 328 328 328 328 329 329 329 331 331 331 332 333 332 329 330 330 330 328 330 334 334 331 333 331 330 326 322 322 323 328 330 331 333 330 329 327 328 328 328 330
354 353 354 354 353 351 349 349 349 350 350 350 352 352 352 352 351 350 349 348 347 346 345 344 344 342 339 338 335 330 330 329 330 331 329 328 328 328 328 327 328 329 328 328 328 327 327 328 328 328 329 329 329 329 330 331 333 331 331 331 332 334 335 332 329 331 332 333 335 331 335 337 339 336 329 329 328 329 328 328 328 328 329 330 327
352 353 353 353 352 350 348 347 347 349 350 349 349 349 350 349 348 348 349 346 345 344 344 342 341 338 337 335 332 330 329 329 329 330 330 329 327 327 329 329 334 333 333 331 329 328 329 330 329 328 327 328 328 327 330 315 325 310 324 338 332 331 330 329 334 320 343 330 330 328 327 328 327 325 325 327 326 326 325 325 327 327 327 327 327
349 350 352 351 351 348 346 345 346 346 346 347 347 347 348 347 347 347 347 345 342 341 341 341 338 335 333 334 331 331 330 329 328 327 324 318 312 311 323 331 329 320 311 307 317 336 336 331 330 336 333 333 329 330 308 301 300 300 299 299 302 302 304 326 322 313 335 328 327 327 326 325 324 324 323 323 324 324 325 324 324 325 324 324 324
347 348 348 349 349 346 344 343 343 343 345 344 344 344 346 346 347 346 345 342 342 340 338 339 337 335 333 330 328 328 329 329 328 326 325 322 320 314 300 303 312 313 305 299 298 301 308 315 336 331 323 309 308 303 300 299 299 299 298 299 299 301 303 302 304 333 329 327 326 324 324 324 323 325 324 323 325 324 326 323 322 323 324 323 322
Wind_Speed
14 15 15 15 14 12 10 10 10 11 10 11 12 12 12 11 11 11 10 9 8 8 8 8 8 7 7 7 7 6 6 5 6 5 5 5 4 4 3 4 4 5 5 6 5 5 6 6 7 7 7 6 7 7 8 9 8 8 9 8 10 9 8 8 8 8 9 9 8 8 6 5 8 6 10 9 7 7 8 12 11 6 5 5 4
16 14 15 15 13 14 11 9 11 12 11 12 12 12 12 12 12 11 10 10 9 9 8 8 7 7 6 6 6 6 6 6 5 5 5 4 5 4 5 5 4 5 5 5 5 6 7 6 7 7 7 7 7 8 9 9 9 9 8 8 8 8 8 8 7 7 7 8 9 8 8 3 4 4 3 6 6 5 5 4 10 8 11 13 7
15 16 16 14 15 14 11 10 10 11 12 13 13 13 12 11 10 10 10 10 9 9 8 8 7 6 6 5 5 4 4 4 4 4 4 4 4 5 5 4 5 5 6 6 6 7 7 7 7 7 7 7 7 7 8 8 7 8 7 7 8 7 7 7 6 4 7 7 8 7 7 5 6 3 4 4 6 6 4 3 4 5 6 7 9
16 17 16 15 14 13 12 11 10 11 11 12 13 13 11 10 10 10 10 10 9 9 8 8 7 6 4 2 1 3 0 2 3 3 4 5 5 5 5 5 6 6 6 6 6 5 6 6 7 8 7 7 7 7 7 8 7 7 7 6 6 8 7 7 6 6 7 7 7 7 8 8 8 2 2 4 2 6 3 1 5 4 7 7 5
15 16 16 15 15 14 13 11 11 11 12 12 12 12 9 13 11 11 9 10 9 9 9 7 6 6 5 4 2 3 3 3 4 6 6 6 6 6 6 6 6 6 5 6 6 6 6 7 7 8 8 7 7 7 7 7 7 7 7 7 7 7 8 9 8 8 9 6 8 7 7 6 6 9 8 5 2 3 5 4 6 6 3 5 5
14 16 16 16 15 14 13 13 13 12 12 12 12 13 12 12 12 12 9 9 9 10 9 7 7 7 7 6 6 6 6 6 6 6 6 6 7 6 6 6 5 5 5 5 5 6 6 7 7 7 7 6 6 6 7 7 8 8 7 6 7 8 7 8 8 8 12 9 8 9 8 9 9 9 10 4 4 8 5 7 6 6 1 5 7
13 15 15 16 15 15 15 14 13 13 12 12 12 12 13 12 12 12 10 9 9 9 10 8 7 7 8 8 7 7 6 5 5 5 5 4 4 4 4 4 4 5 5 5 5 5 6 6 7 7 7 7 6 6 7 8 8 8 7 7 8 8 8 8 9 11 9 10 9 10 11 10 10 6 7 11 9 5 6 7 7 7 6 6 6
14 16 16 15 15 15 16 15 14 13 13 12 12 11 13 12 12 12 10 9 9 9 10 9 8 7 7 7 6 6 7 5 5 5 5 3 3 4 4 4 4 5 5 3 5 5 5 6 6 6 6 6 6 6 7 7 8 9 9 9 9 9 9 10 11 10 11 10 10 11 11 11 10 11 13 11 11 12 10 9 7 6 6 8 8
16 15 16 15 15 15 15 15 14 14 13 12 12 11 11 12 12 12 11 10 9 10 10 10 8 7 7 7 7 6 6 5 4 4 4 3 5 4 5 5 4 4 4 4 5 6 5 5 5 6 6 6 6 7 7 8 9 10 9 8 8 8 9 9 10 10 10 11 10 10 11 9 9 11 9 12 10 11 13 12 11 10 11 11 10
16 16 16 15 15 15 14 14 15 14 13 12 12 11 11 11 12 12 12 10 9 11 10 10 10 7 7 7 8 7 5 4 3 3 3 4 5 5 5 5 6 5 3 4 5 5 5 4 5 6 6 6 6 8 8 9 8 8 9 10 9 10 9 10 10 10 10 11 11 11 8 10 6 9 2 1 9 10 12 12 11 12 12 9 9
15 16 16 16 15 15 15 15 15 14 12 13 12 11 11 11 12 13 12 10 10 11 11 10 9 9 8 8 9 8 7 6 5 5 4 4 5 6 6 6 5 5 4 4 5 5 3 4 5 7 7 7 7 8 8 8 9 10 10 11 10 10 10 10 11 11 10 9 10 7 11 9 12 10 7 3 6 7 9 12 12 12 12 14 10
16 16 16 17 16 16 15 15 15 14 13 13 12 11 11 11 11 12 12 11 10 11 11 10 9 9 8 9 9 8 8 6 7 6 6 6 6 6 5 5 5 6 5 5 5 2 4 4 6 7 7 7 7 7 9 9 10 10 10 9 9 10 9 9 10 11 10 10 9 9 8 8 8 8 7 5 9 8 10 11 11 11 12 12 10
16 16 16 16 16 16 16 16 14 14 12 13 12 12 11 11 12 13 12 12 10 10 11 10 10 9 9 9 8 7 8 8 7 6 5 5 5 5 5 5 5 5 6 5 3 5 6 6 6 7 7 6 7 7 7 9 8 9 10 10 10 10 8 9 10 10 12 10 8 11 9 7 5 7 9 9 8 8 8 10 10 8 11 12 10
17 17 16 16 16 16 16 15 14 13 13 12 12 11 10 10 12 13 13 12 11 10 10 10 10 9 9 8 8 7 7 8 7 7 7 5 4 5 6 5 5 5 5 4 4 6 7 7 6 7 6 5 6 6 7 7 7 7 8 8 9 8 7 8 9 11 9 11 9 8 10 10 10 7 7 5 4 8 11 10 10 9 9 11 12
17 17 17 17 17 18 16 15 14 13 13 13 11 11 10 10 11 12 12 12 12 11 10 10 9 10 9 8 8 7 7 7 7 6 6 6 5 5 4 5 6 4 4 4 5 6 7 6 6 6 5 5 5 6 7 6 6 6 6 6 6 6 7 8 9 10 11 12 11 9 8 8 7 6 5 5 5 6 6 8 10 11 12 11 11
18 18 18 18 18 17 15 15 14 13 13 12 12 11 11 10 11 13 13 12 12 11 10 10 10 9 9 9 9 7 6 6 5 5 6 6 6 6 4 3 4 4 3 4 6 5 5 6 6 5 5 5 5 5 5 5 5 5 5 5 7 6 10 12 12 11 13 14 12 9 9 7 7 6 5 5 5 6 6 6 5 8 11 12 11
18 19 18 19 19 18 15 15 14 14 13 13 12 12 12 11 11 12 12 12 12 12 12 11 10 9 9 9 9 9 9 9 8 8 7 6 6 6 6 5 5 5 6 5 4 5 4 5 4 5 5 4 4 4 5 5 5 5 6 6 6 8 8 10 8 9 10 10 9 10 8 8 7 5 6 6 6 6 6 6 7 9 9 11 11
18 19 19 20 18 18 17 16 16 15 15 14 13 12 11 11 11 12 13 12 11 11 11 11 11 10 10 10 10 10 9 9 8 7 6 5 5 5 5 5 5 5 4 5 5 3 4 4 4 4 4 4 4 4 5 6 6 5 6 5 5 7 8 7 8 9 9 9 8 8 7 8 9 6 6 7 7 7 7 7 8 9 8 10 9
16 18 18 18 18 18 17 17 17 15 14 14 13 13 12 12 12 12 13 13 13 10 10 9 10 8 8 9 10 9 9 7 5 6 6 7 7 5 5 4 5 5 4 1 3 3 2 3 3 2 3 3 3 4 5 6 6 6 6 7 7 8 8 8 8 8 8 8 9 9 8 8 8 8 8 7 7 6 7 7 8 7 7 9 10
16 17 18 18 19 19 18 17 17 16 15 14 14 13 14 12 11 11 12 11 10 11 9 10 10 9 8 8 8 7 7 6 6 6 6 7 6 6 6 6 6 3 2 2 2 3 3 3 3 4 4 5 6 6 6 6 6 6 7 7 8 9 8 8 8 8 7 8 9 9 9 8 8 8 8 8 8 7 7 7 8 7 6 7 8
14 15 16 19 19 19 18 17 15 14 13 13 13 14 14 13 12 12 13 12 12 11 10 9 7 8 8 8 8 8 8 6 7 7 7 7 6 6 5 4 1 1 3 3 4 5 4 4 4 4 4 5 5 6 6 6 6 7 6 6 7 8 8 7 8 9 8 8 8 9 9 8 8 8 8 8 8 8 7 6 6 6 7 7 6
15 16 17 18 18 18 17 16 14 14 14 15 13 13 14 13 12 12 11 10 11 11 9 8 8 7 8 7 6 5 6 6 7 7 8 7 6 5 3 2 3 4 3 5 5 4 5 4 4 5 5 5 5 5 6 6 7 7 7 6 7 8 8 8 8 8 9 8 9 9 8 8 8 8 8 8 7 7 7 7 6 7 7 7 6
15 17 16 16 17 17 17 17 16 16 14 14 14 13 13 13 12 11 11 11 10 10 9 8 8 8 9 7 6 6 6 7 7 6 7 6 5 3 3 4 5 5 5 5 5 6 6 5 5 5 5 5 6 6 6 6 6 7 7 7 7 8 8 9 9 10 10 9 9 9 10 10 8 9 9 8 7 7 7 8 8 7 7 7 6
16 16 15 15 16 16 15 16 16 14 13 13 12 11 12 12 11 11 12 12 11 9 9 9 9 9 9 8 8 7 7 7 7 6 5 6 3 5 5 6 6 5 6 6 6 6 5 4 4 5 5 5 6 6 6 6 6 7 8 8 8 9 9 9 9 10 10 9 9 9 10 10 9 9 8 7 7 7 7 6 8 8 7 7 6
17 17 16 15 16 17 15 15 13 13 12 11 10 10 10 10 11 10 10 11 10 9 8 9 9 9 9 9 9 8 8 8 7 5 6 4 6 7 6 7 6 7 7 6 6 5 5 4 4 5 6 6 6 6 6 6 6 7 7 8 8 8 8 9 9 8 9 9 9 9 9 9 8 8 8 8 8 10 9 8 8 7 6 6 5
15 15 16 15 13 13 14 14 13 13 12 10 9 10 10 10 10 10 10 10 10 9 9 9 8 9 9 9 8 8 8 7 6 6 6 7 7 8 8 7 8 8 7 6 5 4 5 6 5 5 6 6 6 6 6 6 7 7 7 7 8 8 9 9 9 9 8 8 8 8 8 8 8 8 8 8 9 10 8 7 8 7 6 6 5
16 14 13 11 11 15 15 13 13 13 12 11 11 10 10 9 10 10 8 9 9 9 9 9 9 9 8 9 8 8 7 7 7 7 7 7 8 9 9 9 8 8 7 6 6 6 5 6 6 6 7 7 6 6 6 6 6 6 7 8 8 8 9 8 8 8 8 8 8 8 7 7 8 8 8 9 9 8 7 8 7 7 6 6 6
14 15 15 15 14 15 14 13 13 11 11 10 11 10 10 10 10 9 8 9 8 9 9 9 9 9 8 9 8 8 8 8 7 8 8 8 9 9 9 9 8 8 8 7 6 6 6 6 6 6 6 6 6 6 6 6 6 7 7 7 8 8 8 8 8 8 8 7 7 7 7 7 7 8 9 7 8 7 7 7 6 5 5 4 4
16 16 15 15 16 15 14 14 12 12 12 11 9 9 9 9 9 9 9 10 10 10 10 10 9 9 9 9 8 8 8 9 9 9 9 9 10 10 9 9 8 8 6 7 7 7 7 7 7 7 6 6 6 6 6 6 6 7 7 7 7 8 8 8 7 7 7 7 7 6 6 6 8 9 9 8 9 10 8 8 7 8 9 7 5
15 15 15 14 15 14 13 13 13 13 12 11 9 9 10 10 10 9 9 9 9 10 10 10 10 9 9 9 9 9 9 9 9 9 10 10 10 10 9 9 8 8 7 7 7 7 7 7 7 7 6 6 6 5 7 9 7 6 6 6 6 8 7 6 6 8 8 8 7 6 6 8 9 9 10 10 10 11 11 9 7 7 8 8 7
13 11 12 13 13 13 13 14 14 14 13 10 10 9 10 10 10 10 10 10 10 10 10 10 10 10 10 10 10 10 10 10 10 10 10 11 10 9 9 9 8 8 8 7 7 7 7 7 7 6 7 6 6 5 9 8 8 10 7 6 6 6 6 7 7 7 8 9 7 6 5 6 8 9 9 10 9 9 9 9 9 8 8 7 7
12 13 13 11 12 14 15 15 14 13 13 11 10 10 10 10 10 10 10 10 10 10 10 10 10 10 11 11 10 11 11 11 11 11 11 11 10 10 10 9 8 8 8 8 8 8 7 7 6 6 7 7 6 7 7 7 7 8 8 5 6 7 7 8 8 8 8 8 7 5 5 5 7 9 8 7 8 8 7 6 9 9 8 8 7
13 13 15 15 14 13 13 13 12 12 12 13 12 11 11 10 11 10 10 10 11 11 10 10 10 11 11 11 11 12 12 11 11 12 11 11 10 10 10 9 9 8 8 8 8 8 7 7 7 7 7 7 7 6 6 7 7 8 10 9 7 6 7 8 8 8 8 8 6 5 4 5 5 9 7 8 7 6 7 9 10 11 13 13 11
10 13 15 15 14 13 13 14 13 13 14 13 13 12 11 11 11 11 11 11 11 11 11 11 11 11 11 12 12 12 12 12 12 12 12 11 11 10 9 9 9 9 8 8 8 8 7 7 7 7 7 7 6 5 7 7 7 8 9 9 7 6 7 8 8 8 8 8 7 6 5 5 6 6 7 8 9 6 6 5 6 7 8 11 11
4 7 11 12 14 15 15 15 15 16 15 13 12 10 10 11 11 12 12 12 12 12 11 11 11 11 12 12 13 13 13 13 13 12 12 11 10 10 10 9 8 9 9 9 9 8 7 7 7 7 7 7 4 5 5 7 7 9 10 11 7 6 7 7 8 9 9 8 7 5 5 5 6 7 6 8 8 8 6 5 5 6 7 8 10
8 8 9 11 13 15 15 15 13 14 14 14 13 13 12 12 12 12 12 12 12 12 12 12 12 12 13 13 14 13 13 13 13 13 12 11 11 10 10 9 9 8 8 8 7 7 7 8 7 7 7 7 4 4 5 6 8 8 12 3 6 6 7 7 8 11 10 8 7 5 4 7 7 7 10 13 11 11 6 5 4 5 5 6 7
10 10 10 11 12 13 15 14 13 13 13 13 13 13 13 13 12 12 12 12 12 12 12 12 12 13 13 13 14 14 14 14 13 13 12 12 11 11 9 8 9 9 9 8 8 7 7 7 7 7 6 5 4 3 4 6 7 9 8 6 5 7 7 8 9 10 10 9 8 9 8 7 8 9 12 11 12 12 4 3 3 3 4 5 5
10 9 10 11 11 11 13 13 14 14 14 11 11 11 11 11 11 11 12 12 12 12 12 12 12 13 13 13 14 14 15 14 14 13 13 11 10 9 9 9 9 10 9 8 8 7 7 7 7 6 5 5 3 3 6 7 8 8 8 5 5 7 8 8 9 9 8 8 8 13 11 9 9 10 12 12 13 10 7 8 8 8 7 7 6
8 12 12 11 10 11 13 13 14 15 14 13 13 13 12 11 11 11 12 12 12 12 12 12 12 13 13 13 13 14 14 14 14 13 12 12 11 10 9 8 9 8 9 8 8 7 7 6 5 5 4 3 3 4 6 8 8 9 7 7 7 8 7 8 8 8 8 7 6 8 12 11 9 10 12 14 15 13 8 7 7 6 6 7 6
3 2 6 8 9 10 11 13 14 13 14 14 14 12 12 11 12 12 12 12 12 12 11 12 13 13 13 12 12 14 14 13 13 12 11 11 10 10 10 9 9 8 8 8 7 7 7 6 5 4 3 2 3 4 6 7 8 9 10 4 7 8 8 8 7 7 7 7 6 6 8 11 11 10 11 12 13 14 9 9 8 8 7 8 8
4 5 5 7 9 12 12 13 11 10 11 12 12 12 11 11 12 12 13 12 10 11 12 13 13 13 13 13 12 13 14 12 12 12 11 10 9 10 10 10 9 8 8 8 8 8 7 6 5 4 2 2 2 4 6 7 8 9 10 8 6 6 6 6 6 6 6 6 6 7 7 9 10 10 10 11 11 13 11 10 10 10 9 6 7
3 3 6 6 5 6 8 10 10 11 11 11 12 11 11 11 11 12 12 11 12 13 13 13 14 14 14 15 14 13 12 11 12 11 11 10 9 9 9 9 8 8 9 9 8 8 7 6 5 4 3 3 3 5 4 7 8 9 9 11 6 6 5 6 6 7 6 6 6 6 6 6 8 10 11 11 10 10 11 11 6 5 5 5 7
5 4 4 4 4 6 7 6 7 9 9 11 13 13 12 12 12 13 12 12 13 13 13 13 14 15 15 15 13 14 11 10 10 11 11 11 10 10 9 8 9 9 10 9 8 7 7 6 5 4 4 4 4 4 6 6 7 7 8 9 9 6 8 4 6 7 6 5 4 5 4 5 5 8 10 11 11 9 10 6 6 4 3 1 7
6 6 8 7 5 6 7 6 6 7 7 7 10 11 11 12 13 12 12 13 14 14 14 14 14 14 16 14 14 13 12 11 12 11 11 11 11 10 9 8 9 9 8 8 7 7 7 7 6 5 4 4 4 5 5 6 5 5 6 7 7 8 9 6 6 6 5 5 4 4 4 6 4 4 4 7 9 9 7 7 4 3 9 9 9
4 6 7 7 7 7 6 6 4 3 4 5 6 7 10 10 9 10 11 12 13 14 14 14 15 17 16 14 13 12 13 12 12 12 12 11 11 10 9 8 8 8 8 8 8 8 8 7 6 6 6 5 5 5 5 4 4 5 5 5 5 5 6 5 5 6 5 4 3 5 7 4 4 4 4 2 7 8 9 9 8 7 8 9 8
5 5 5 5 7 7 6 6 6 5 4 3 2 4 8 9 10 10 12 14 13 12 13 15 16 16 14 14 13 12 12 12 12 10 10 10 11 10 9 8 8 8 8 8 8 8 8 7 6 6 6 6 6 6 5 5 5 4 4 4 4 5 8 10 8 6 6 2 3 7 7 5 1 5 5 6 6 5 2 7 9 10 10 9 8
5 4 4 4 5 6 6 6 5 3 3 4 6 7 9 10 10 9 9 10 12 14 14 16 15 13 13 13 14 11 11 9 9 8 9 10 10 10 9 9 8 8 8 8 8 8 7 7 7 7 6 6 6 5 5 5 4 4 5 6 5 4 5 6 5 4 5 4 2 1 3 4 3 4 3 1 6 3 5 7 8 9 9 8 8
4 3 3 3 5 6 6 6 5 4 4 5 6 8 9 10 9 9 10 12 12 14 15 14 12 9 10 11 11 14 13 11 10 9 8 9 11 11 11 9 8 8 8 8 7 7 7 7 7 7 7 6 6 5 6 5 4 2 3 4 4 2 2 2 4 4 4 2 2 4 5 4 3 4 1 5 5 6 6 6 6 6 6 6 7
2 3 2 3 5 7 7 7 6 5 5 5 6 7 8 8 8 9 11 13 13 13 13 12 9 9 8 7 7 7 8 9 9 8 2 2 9 13 11 9 5 4 4 6 7 6 6 6 7 7 7 6 5 6 4 6 4 5 4 3 3 2 3 4 5 6 2 3 2 2 2 1 1 1 2 3 4 4 6 6 7 6 6 6 6
2 1 3 4 6 8 8 8 7 6 6 6 7 7 8 8 9 10 11 12 13 13 13 11 9 8 10 10 9 7 6 7 7 8 6 6 14 15 9 8 7 8 10 10 6 3 2 5 6 4 4 2 4 6 6 6 4 4 4 3 4 6 7 6 7 8 6 2 2 2 2 2 2 3 3 3 4 4 4 5 5 6 6 6 6
2 3 4 4 7 8 9 9 7 6 7 8 8 8 8 9 9 10 10 12 12 12 11 10 10 10 10 12 11 10 9 7 6 8 7 6 6 9 16 17 14 9 9 10 10 11 12 11 4 5 6 11 12 9 8 5 5 5 4 4 5 6 6 7 6 4 1 2 2 2 1 2 3 3 4 4 4 4 4 4 5 5 5 5 6
Wind_Direction
181 180 175 176 175 170 169 166 171 167 171 168 172 174 178 175 174 176 185 189 179 184 183 195 189 188 199 198 200 196 203 208 211 217 224 219 217 229 210 229 217 227 234 241 248 253 262 268 272 272 275 280 280 282 288 297 299 296 290 280 279 283 286 287 291 301 306 293 287 299 324 351 294 334 339 333 329 349 349 327 318 318 301 280 274
175 176 176 177 175 167 167 168 169 167 172 170 176 175 177 177 178 177 183 188 188 188 185 195 193 194 192 198 205 195 185 203 217 215 219 212 194 227 239 237 236 239 236 245 253 261 266 271 270 273 276 279 283 285 286 282 276 272 282 290 281 286 293 298 307 313 293 307 317 324 308 325 324 264 279 292 316 321 326 305 306 347 1 329 310
175 177 177 179 175 166 171 169 170 172 172 173 175 174 176 181 177 181 185 185 190 190 189 195 194 196 206 189 209 208 186 203 219 208 214 234 204 206 227 233 237 236 237 238 248 249 258 270 279 285 283 282 278 273 271 269 267 271 273 279 293 292 292 286 284 284 300 305 312 312 309 321 288 243 156 252 300 292 286 323 294 301 321 309 315
179 177 179 178 175 170 172 172 172 172 173 174 175 176 178 180 177 184 184 189 188 185 196 194 190 178 203 231 197 279 323 154 242 250 246 242 238 231 211 215 226 245 243 248 249 259 267 270 278 285 285 279 273 274 277 281 277 267 264 268 276 289 293 304 309 300 286 302 303 317 308 312 311 285 263 255 253 268 224 228 280 311 300 302 355
179 177 181 178 177 176 175 173 171 175 176 174 177 177 180 179 179 180 184 189 188 178 188 195 166 169 174 179 194 222 246 239 230 221 216 222 238 223 222 213 221 241 252 252 263 272 271 269 276 284 285 280 277 276 275 279 292 298 293 286 276 285 308 305 300 300 289 284 289 292 295 295 301 312 317 329 184 242 242 256 246 241 210 287 274
180 181 182 180 180 175 174 175 176 177 178 175 178 173 181 178 176 178 185 189 191 178 182 188 175 184 178 187 200 207 216 214 219 224 208 202 213 218 219 211 210 228 237 255 268 281 286 277 273 277 281 274 263 273 286 291 284 277 276 270 279 268 266 277 294 313 296 276 257 259 267 290 312 309 302 300 251 309 285 231 209 223 194 257 264
185 183 185 181 180 176 175 178 181 180 179 178 179 175 181 177 176 179 184 189 193 179 177 184 182 192 197 203 204 208 212 219 225 225 228 207 212 204 221 217 224 245 253 258 281 287 278 276 269 266 273 276 275 274 277 282 288 292 302 293 281 284 280 273 281 278 274 281 279 271 273 271 252 286 297 296 290 249 230 227 246 259 248 281 250
183 187 185 182 179 178 178 177 184 182 179 180 181 181 180 181 176 180 180 187 192 179 178 185 189 194 200 219 215 217 217 214 208 222 229 245 245 244 246 236 220 226 251 262 272 275 276 282 272 268 273 281 287 288 294 300 308 304 302 294 284 279 276 269 274 280 284 284 279 280 269 264 281 281 269 283 279 282 280 269 245 275 285 239 237
184 184 186 184 178 180 179 178 185 183 183 183 182 184 179 181 180 179 179 182 189 181 181 186 196 193 201 207 218 227 237 225 210 221 242 228 244 244 252 268 260 252 249 266 267 274 268 278 284 275 277 284 284 289 292 299 299 298 293 283 273 270 271 274 270 273 276 280 284 276 275 285 293 267 278 280 286 272 278 262 264 246 223 236 237
188 188 185 184 178 181 179 179 184 186 185 184 182 185 183 179 180 181 180 183 184 181 186 188 193 194 201 218 217 218 222 233 243 216 216 242 253 253 256 257 261 258 249 220 243 261 274 271 282 290 284 285 288 296 296 291 285 284 282 280 280 281 281 276 272 273 279 283 294 300 309 295 264 274 280 242 264 250 261 279 279 283 271 247 239
192 189 185 185 183 181 180 184 184 186 187 184 185 186 187 182 178 184 183 187 181 183 186 190 193 198 205 209 218 222 223 225 228 230 231 240 252 257 249 243 248 262 273 276 279 278 282 282 299 310 307 300 290 287 289 299 302 300 297 296 286 279 278 280 281 280 281 289 295 298 297 283 291 293 281 209 222 250 262 264 274 270 264 275 262
193 189 186 185 184 185 183 187 183 186 188 187 187 186 192 186 178 183 186 186 185 185 189 194 197 201 210 208 214 220 225 229 224 230 237 238 242 239 244 261 272 273 270 272 267 307 315 315 304 303 305 301 299 311 315 314 310 305 300 299 299 295 291 289 287 289 298 299 303 303 282 308 300 296 303 199 262 254 262 271 274 280 272 271 274
193 189 187 186 186 189 188 188 186 188 192 191 189 187 189 190 181 181 184 186 188 188 189 194 201 205 208 211 212 218 220 227 241 244 245 241 239 246 236 243 247 251 256 269 304 322 326 317 320 314 312 319 328 321 313 310 308 306 304 302 304 303 303 307 302 300 303 299 309 293 284 272 270 282 301 310 320 293 269 276 275 277 277 280 283
191 189 190 186 188 191 192 190 191 191 194 195 192 193 186 190 186 182 185 184 185 192 190 193 201 207 208 212 213 208 217 225 228 242 240 250 258 260 268 266 266 264 280 300 319 327 316 320 316 318 318 328 335 323 312 312 313 309 314 316 319 319 318 313 302 310 314 309 308 305 307 308 309 339 328 312 316 288 275 268 279 270 261 279 289
190 189 191 187 189 190 191 194 193 195 199 197 193 192 192 191 187 184 184 184 184 189 190 195 201 206 209 213 216 218 216 218 227 236 251 248 250 255 257 266 269 291 315 319 324 308 312 325 335 315 354 350 337 335 332 325 344 325 325 331 324 325 343 332 320 321 316 322 325 322 320 321 327 327 327 298 280 280 292 300 285 280 283 281 282
186 187 189 188 188 189 192 193 196 199 200 204 198 191 197 194 189 188 183 186 185 186 192 197 205 206 204 213 218 222 229 234 225 223 233 248 260 271 275 268 273 289 291 307 294 302 328 342 331 357 15 354 2 355 347 348 349 340 335 345 329 329 320 318 317 321 315 317 319 322 320 318 314 317 293 295 294 287 282 258 233 262 279 285 286
184 184 187 187 186 190 192 193 196 200 200 203 206 198 195 195 193 189 186 188 186 187 195 200 202 208 206 208 214 213 218 226 230 219 226 239 253 258 262 279 309 293 289 281 306 342 10 358 357 9 26 12 11 17 1 7 354 350 1 342 343 347 337 330 334 323 325 329 326 335 336 321 312 304 293 289 292 282 271 263 250 268 272 279 289
182 183 184 186 187 188 192 194 198 200 202 203 203 207 193 200 195 189 188 191 189 191 200 201 203 206 208 209 211 220 225 227 231 249 246 233 229 238 255 262 260 283 310 317 324 339 57 33 34 42 34 30 15 14 12 15 5 357 351 324 18 348 336 334 329 329 332 330 327 327 327 311 307 315 301 296 289 271 267 264 271 270 269 268 276
181 182 180 182 185 188 191 195 198 200 205 203 198 202 199 198 199 195 193 190 190 191 200 206 205 208 208 212 214 214 224 231 231 222 232 248 254 262 268 271 278 275 266 6 338 8 57 67 62 53 67 47 28 24 17 21 4 353 346 337 8 353 338 334 334 341 333 329 330 330 325 318 327 325 317 304 296 286 271 270 276 281 270 266 274
182 181 179 181 183 186 188 194 196 198 199 202 198 196 201 196 194 197 196 186 187 192 195 205 210 212 211 209 210 218 213 213 214 221 231 241 242 247 252 258 259 274 63 51 48 49 44 45 67 59 45 31 16 18 8 18 4 6 350 351 355 348 344 338 344 339 338 337 335 335 337 331 335 331 316 311 301 288 282 288 291 287 267 272 285
184 180 179 182 183 186 186 190 196 198 198 203 201 197 200 193 190 193 197 187 186 191 192 198 203 214 220 217 211 199 204 199 207 215 234 248 257 260 252 268 42 72 83 83 87 89 87 77 60 54 51 45 32 11 13 12 13 4 360 356 358 354 349 346 343 342 346 339 340 337 334 336 339 328 323 321 306 305 305 295 291 286 281 279 276
183 183 183 185 185 187 186 188 193 198 197 199 203 197 200 191 189 194 192 191 186 187 191 189 193 204 212 215 226 198 193 199 208 222 231 242 242 231 234 162 111 91 97 99 98 98 89 83 77 60 45 43 26 31 17 26 15 11 9 7 5 354 351 347 343 341 338 339 337 337 333 339 338 332 327 315 322 316 307 308 301 291 285 287 291
187 189 189 187 186 189 188 188 192 197 199 197 200 199 199 189 190 188 188 189 189 186 184 183 187 193 202 205 198 199 184 196 217 228 233 232 219 193 141 142 119 115 107 110 110 99 91 83 75 62 44 39 33 26 35 30 27 19 13 4 358 350 347 343 345 343 343 342 340 335 335 338 337 335 333 331 327 327 327 317 309 304 314 318 308
198 197 195 191 188 190 189 189 193 197 197 197 196 196 196 194 191 187 189 188 185 180 177 181 188 195 196 192 191 191 196 207 217 226 221 226 171 129 113 111 119 122 115 101 97 96 93 91 81 69 57 49 44 38 34 32 27 20 8 356 357 348 351 348 346 347 345 343 341 339 342 342 344 342 338 337 342 341 329 326 326 339 323 322 322
199 198 199 193 193 190 192 190 192 192 191 189 181 184 193 189 189 187 188 186 182 178 176 181 189 193 188 187 190 193 200 209 215 197 205 158 118 112 115 120 122 116 114 113 107 108 102 84 65 65 63 54 50 43 32 30 21 13 2 359 358 353 351 348 352 351 350 347 345 345 342 344 347 342 342 343 350 343 337 339 337 339 337 332 325
196 199 199 197 195 191 191 189 188 187 184 175 179 180 185 188 190 188 185 179 179 177 179 179 184 187 188 191 187 191 196 195 199 171 163 124 119 117 118 113 112 112 110 106 104 91 80 73 64 63 68 63 52 41 35 26 19 9 2 7 2 355 359 355 359 355 353 354 347 345 349 350 348 343 341 344 350 347 338 344 341 339 335 327 316
195 201 199 192 189 193 188 183 184 189 183 179 185 185 187 188 191 191 181 173 171 172 173 175 181 185 184 189 183 181 181 181 170 155 131 123 120 121 119 118 116 112 110 104 100 92 78 80 76 68 64 59 52 39 31 19 15 11 6 8 4 6 5 3 8 2 359 355 352 350 353 356 351 351 355 358 351 345 337 338 347 338 332 332 329
190 198 199 193 192 192 184 179 181 185 181 188 188 180 180 185 191 187 177 171 170 171 172 176 177 183 181 180 176 172 170 161 144 129 124 122 120 118 116 114 114 112 108 108 104 99 97 86 80 78 71 63 50 42 27 10 7 11 8 11 15 12 8 11 7 2 359 353 354 355 3 11 357 357 2 0 357 350 352 349 356 342 332 331 326
188 193 195 189 188 190 187 182 179 177 181 180 174 176 178 187 189 182 177 176 171 170 173 176 178 180 176 171 167 163 151 136 130 126 123 123 120 117 116 115 113 113 110 106 100 96 95 92 85 80 74 59 53 43 28 9 358 11 20 20 19 18 20 16 3 4 3 359 4 349 23 12 358 353 6 14 9 2 353 356 4 351 349 349 346
190 189 192 190 189 186 185 182 181 184 183 176 174 179 183 185 187 181 177 175 169 172 172 178 179 177 167 163 157 145 138 133 130 128 126 125 123 120 116 112 108 105 106 105 105 103 99 98 93 83 75 64 57 52 22 12 1 352 6 27 23 27 27 19 8 2 4 9 22 9 18 9 354 5 10 17 16 12 9 8 356 355 352 352 355
190 196 197 193 190 188 185 184 184 185 184 178 180 184 187 187 183 179 175 174 173 171 177 178 177 170 162 153 146 140 136 134 132 129 129 127 124 122 117 114 113 113 112 112 113 110 104 96 92 89 80 72 60 43 12 9 359 346 337 31 33 37 30 23 20 11 7 16 23 23 1 354 1 8 11 4 28 20 10 5 355 358 357 353 343
193 195 197 197 196 194 193 191 187 183 179 178 182 186 182 184 181 178 175 171 173 174 177 178 172 164 155 149 143 139 136 133 133 131 131 128 126 123 122 121 122 122 119 119 115 111 108 103 96 91 81 75 70 39 1 6 0 340 332 333 41 33 29 28 19 17 16 17 18 17 9 357 9 6 353 7 26 19 8 4 5 14 22 14 6
194 195 197 199 200 201 195 190 185 182 182 185 182 179 182 182 180 176 167 169 176 177 175 173 168 158 151 145 141 139 136 137 136 133 132 130 129 127 126 126 125 123 123 122 120 116 111 105 100 96 89 81 81 44 356 3 352 331 324 315 45 30 33 31 20 21 20 17 18 9 14 12 11 7 359 13 13 2 16 28 39 41 44 50 43
205 198 199 199 196 196 194 191 186 185 187 188 185 182 183 180 175 168 171 173 176 175 173 168 161 154 148 144 143 140 139 138 137 135 134 133 132 131 128 125 126 129 129 127 121 115 114 110 103 98 91 90 90 41 346 353 342 326 310 303 45 34 38 32 24 23 23 25 24 18 11 19 19 24 25 3 352 355 9 23 41 41 43 42 38
195 221 217 204 198 194 191 188 188 188 189 185 183 182 169 171 172 174 176 173 175 170 170 162 156 151 147 146 144 142 139 139 139 137 136 135 132 128 130 132 135 135 135 132 128 124 121 119 119 112 106 102 84 15 340 341 339 318 310 296 51 40 45 41 31 30 29 31 35 31 23 21 28 30 20 353 333 342 359 24 33 35 36 42 41
209 215 217 211 203 193 189 188 184 183 185 183 182 177 171 175 176 175 175 174 172 170 165 159 155 154 152 149 145 142 140 142 141 140 138 135 134 135 137 138 136 135 132 131 130 129 126 122 118 117 114 107 90 24 343 338 333 317 303 347 56 56 53 51 43 42 41 39 38 33 32 42 20 14 13 345 327 312 342 358 25 36 42 57 64
177 185 215 219 210 201 192 180 181 184 184 189 184 178 177 174 175 176 173 173 171 168 164 160 157 155 152 150 146 142 143 144 143 141 139 138 138 140 139 144 140 140 141 139 140 136 131 127 122 120 121 113 102 31 356 342 332 325 311 70 65 65 63 60 57 54 52 50 34 22 34 19 20 19 4 336 320 315 29 11 41 57 68 62 72
176 174 187 199 204 203 197 195 185 186 186 183 179 172 171 170 173 172 170 172 172 168 162 159 156 154 149 148 146 144 144 145 145 143 141 139 139 140 144 150 146 145 144 143 141 135 131 127 123 121 120 119 99 46 21 357 339 343 313 61 82 78 77 73 71 67 65 67 46 25 13 28 26 18 356 344 340 340 34 26 30 45 48 51 47
183 171 172 189 193 195 191 192 190 188 185 177 173 171 170 172 170 171 172 172 175 169 164 160 153 147 144 145 146 145 144 144 143 142 141 141 144 145 146 148 145 143 140 144 141 133 127 117 103 95 72 105 106 81 43 7 349 345 339 75 71 86 84 81 84 74 72 67 68 52 33 21 17 4 358 360 355 358 54 44 60 70 67 63 60
242 187 157 176 179 184 193 192 193 192 181 177 174 174 176 171 173 173 175 178 178 168 157 147 144 143 141 144 147 144 143 142 140 138 139 139 140 142 148 148 146 145 147 141 139 128 123 111 99 95 90 105 104 68 43 9 2 353 348 2 85 85 82 81 71 77 72 61 56 59 46 17 355 3 4 2 2 354 40 57 59 60 62 64 60
207 173 177 173 183 181 184 188 189 185 181 178 179 178 175 172 170 174 180 177 162 147 144 142 142 143 148 152 144 142 139 136 136 136 136 137 142 145 145 146 146 144 139 135 128 122 113 108 98 96 112 94 71 90 59 24 18 11 2 353 81 69 80 78 80 69 59 56 48 43 47 15 356 8 10 9 9 9 26 56 53 60 52 51 68
68 115 156 165 188 190 184 182 172 177 176 173 173 170 168 166 168 176 174 157 143 141 140 137 139 142 151 156 141 136 132 131 134 135 135 135 138 140 142 143 141 139 137 130 128 125 117 106 105 113 118 114 71 60 86 56 31 25 22 7 42 55 12 76 67 65 61 53 45 45 45 360 353 19 22 18 11 23 33 66 35 6 24 50 70
78 63 60 121 142 159 178 167 160 173 175 173 170 165 165 165 173 172 160 145 139 135 133 132 136 150 155 150 133 130 129 133 134 134 132 132 135 138 138 137 139 139 136 133 127 124 122 120 123 129 125 122 115 88 53 74 53 30 29 35 14 16 329 47 70 73 58 55 54 59 66 7 354 26 32 26 16 21 65 26 5 25 301 94 67
54 53 39 29 92 99 94 109 138 149 164 174 172 165 165 169 172 155 145 138 136 133 133 135 140 149 155 145 132 133 132 131 131 128 127 131 135 136 135 140 144 142 139 134 131 133 135 135 137 130 135 130 121 110 80 63 66 41 41 37 30 21 10 47 65 70 60 51 54 58 33 323 346 349 20 39 35 22 28 10 360 29 65 66 75
56 51 57 61 61 82 102 106 89 102 121 154 170 175 169 160 130 118 120 129 134 138 141 144 151 158 156 140 137 135 133 130 130 133 134 137 134 136 136 144 146 141 140 138 141 145 143 144 139 139 139 138 130 123 115 91 87 86 55 44 41 38 24 357 81 71 71 66 19 313 294 313 323 295 267 223 55 32 12 19 35 59 68 68 61
58 72 74 81 91 90 90 97 105 114 120 95 114 147 138 130 114 120 137 138 139 143 150 157 162 160 146 138 134 130 128 131 134 137 135 135 137 138 141 147 144 141 143 145 151 149 152 147 149 147 142 138 135 133 128 130 146 129 103 69 54 59 75 65 72 77 70 71 286 268 273 265 9 352 63 53 47 35 15 58 47 55 62 57 55
54 68 97 104 99 97 99 99 99 108 124 140 141 99 114 119 120 130 133 136 140 151 162 167 161 146 138 136 133 135 132 127 122 126 136 140 137 135 139 145 148 149 150 157 156 158 157 154 156 149 143 139 141 139 137 143 141 147 141 148 146 130 147 163 143 144 181 185 200 263 55 354 345 315 275 272 41 64 77 67 66 61 60 61 59
58 73 66 99 112 112 117 120 120 121 118 126 105 102 110 122 133 147 159 157 158 161 161 158 145 128 138 142 140 133 133 136 135 134 142 151 144 138 141 146 155 155 161 161 161 163 164 161 157 154 148 146 144 148 151 148 155 147 145 144 138 142 114 86 101 104 96 109 151 207 222 231 222 225 167 66 53 52 49 55 60 65 66 73 82
60 75 104 101 118 118 120 123 124 129 133 129 129 135 142 145 155 161 162 166 161 150 139 131 121 109 98 91 104 114 113 123 129 127 90 271 152 142 136 135 113 150 163 163 164 158 165 163 161 154 157 159 161 148 101 33 39 22 5 355 75 89 100 111 48 13 334 118 113 102 88 112 32 83 76 60 77 74 68 57 45 45 55 55 51
66 73 91 118 120 125 125 126 122 119 122 128 127 130 140 150 151 152 156 156 154 147 135 126 125 121 115 104 105 111 108 117 129 122 99 47 31 49 69 126 120 59 43 35 41 127 120 173 145 82 32 198 147 93 86 85 68 64 56 28 1 1 354 16 13 333 298 96 61 30 339 32 51 52 47 49 47 54 63 67 69 59 51 43 46
141 135 131 126 119 120 124 123 124 127 131 131 133 135 141 139 142 152 154 154 152 145 138 139 138 137 136 145 145 138 133 132 143 131 137 125 105 54 49 59 68 67 55 51 52 52 44 23 33 137 77 58 77 90 93 99 104 86 64 45 38 9 4 340 349 341 213 128 177 153 101 69 46 47 46 50 44 44 38 57 64 57 54 54 53